Location: Mexico
(19.4000°N, 99.1500°W)
Time: 14:06:54
(UTC-06:00)

ISS - Pass Details

Date: 23 March 2017
Orbit: 399 x 409 km, 51.6° (Epoch: 24 March)

Event Time Altitude Azimuth Distance (km) Brightness Sun altitude
Exits shadow 05:13:36 - 349° (N) 2,329 0.0 -20.6°
Rises 05:13:37 0° 350° (N) 2,325 0.0 -20.6°
Reaches altitude 10° 05:17:26 10° 35° (NE) 1,464 -0.4 -19.7°
Maximum altitude 05:17:57 10° 44° (NE) 1,448 -0.3 -19.6°
Drops below altitude 10° 05:18:28 10° 53° (NE) 1,464 -0.1 -19.5°
Sets 05:22:17 0° 98° (E) 2,322 1.4 -18.6°
